Flag for Germany Weather past 2 weeks in Leutkirch im Allgäu, Baden-Württemberg, Germany

Now
34 °F

Overcast.


Feels Like: 31 °F
Forecast: 23 / 31 °F
Wind: 3 mph from Southwest

Location: Kempten

Current Time: Dec 26, 2014 at 4:48:48 AM

Latest Report: Dec 26, 2014 at 3:00 AM


Visibility: 22 mi

Pressure: 30.43 "Hg

Humidity: 79%

Dew point: 28 °F

Location of Leutkirch im AllgäuLocation

Historic Weather in Leutkirch im Allgäu — Graph

°F

Leutkirch im Allgäu temperature yesterday

Maximum temperature yesterday: 46 °F (at 1:00 AM)
Minimum temperature yesterday: 35 °F (at 8:00 PM)
Average temperature yesterday: 39 °F

Past Weeks' High & Low Weather Summary

 TemperatureHumidityPressure
High56 °F (Dec 23, 1:00 PM)98% (Dec 16, 8:00 AM)30.58 "Hg (Dec 16, 8:00 AM)
Low33 °F (Dec 23, 8:00 AM)19% (Dec 23, 12:00 PM)29.84 "Hg (Dec 12, 9:00 PM)
Average42 °F73%30.17 "Hg
* Reported Dec 11 3:00 AM — Dec 26 3:00 AM, Leutkirch im Allgäu, Weather by CustomWeather, © 2014

Note: Actual official high and low records may vary slightly from our data, if they occured in-between our weather recording intervals... More about our weather records

Advertising

Leutkirch im Allgäu weather history for previous 24 hours

 ConditionsComfort  
Time TempWeatherWind HumidityBarometerVisibility
3:00 AM
Dec 26
34 °FOvercast.3 mph79%30.43 "Hg22 mi
2:00 AM33 °FOvercast.5 mph81%30.41 "Hg19 mi
1:00 AM33 °FClear.3 mph84%30.42 "Hg18 mi
12:00 AM34 °FPassing clouds.3 mph84%30.42 "Hg16 mi
11:00 PM
Dec 25
35 °FLight snow. Overcast.3 mph83%30.42 "Hg14 mi
9:00 PM35 °FLight snow. Overcast.3 mph81%30.42 "Hg22 mi
8:00 PM35 °FOvercast.3 mph81%30.42 "Hg25 mi
7:00 PM35 °FOvercast.5 mph74%30.41 "Hg31 mi
6:00 PM35 °FOvercast.3 mph82%30.39 "Hg25 mi
5:00 PM35 °FOvercast.1 mph90%30.37 "Hg12 mi
3:00 PM36 °FDrizzle. Overcast.2 mph93%30.33 "Hg12 mi
2:00 PM36 °FLight freezing rain. Low clouds.3 mph94%30.33 "Hg4 mi
1:00 PM35 °FRain. Low clouds.2 mph94%30.34 "Hg1 mi
12:00 PM42 °FOvercast.6 mph83%30.29 "Hg34 mi
11:00 AM42 °FOvercast.3 mph89%30.29 "Hg34 mi
9:00 AM40 °FLight freezing rain. Overcast.3 mph93%30.29 "Hg4 mi
8:00 AM40 °FLight rain. Overcast.3 mph94%30.28 "Hg7 mi
7:00 AM39 °FLight freezing rain. Overcast.5 mph93%30.28 "Hg6 mi
6:00 AM40 °FLight freezing rain. Overcast.6 mph87%30.27 "Hg3 mi
5:00 AM40 °FLight rain. Overcast.6 mph87%30.28 "Hg4 mi
Weather by CustomWeather, © 2014

See weather overviewHow to use our weather pages